Location: Caltech
(34.1382°N, 118.1253°W)
Time: 23:38:08
(UTC-07:00)

HO-68 - Visible Passes

Search period start: 02 August 2015 00:00
Search period end: 12 August 2015 00:00
Orbit: 1193 x 1204 km, 100.2° (Epoch: 02 August)

Date Brightness Start Highest point End Pass type
(mag) Time Alt. Az. Time Alt. Az. Time Alt. Az.
02 Aug ? 20:23:55 10° SSE 20:30:56 64° ENE 20:38:01 10° N visible
02 Aug ? 22:14:10 10° SW 22:19:14 20° W 22:23:59 10° NW visible
03 Aug ? 20:07:21 10° SE 20:14:06 49° ENE 20:20:57 10° N visible
03 Aug ? 21:56:08 10° SSW 22:02:06 27° W 22:07:52 10° NW visible
04 Aug ? 21:38:30 10° SSW 21:45:01 37° W 21:51:27 10° NNW visible
05 Aug ? 21:21:07 10° S 21:27:59 49° W 21:34:52 10° NNW visible
06 Aug ? 21:03:56 10° S 21:11:01 66° WSW 21:18:08 10° NNW visible
07 Aug ? 20:46:56 10° SSE 20:54:05 87° WSW 21:01:18 10° NNW visible
07 Aug ? 22:40:19 10° WSW 22:42:53 12° W 22:44:50 10° WNW visible
08 Aug ? 20:30:08 10° SSE 20:37:13 72° ENE 20:44:21 10° N visible
08 Aug ? 22:21:04 10° SW 22:25:39 17° W 22:29:51 10° NW visible
09 Aug ? 20:13:30 10° SE 20:20:22 54° ENE 20:27:19 10° N visible
09 Aug ? 22:02:50 10° SSW 22:08:29 24° W 22:13:54 10° NW visible
10 Aug ? 21:45:03 10° SSW 21:51:23 32° W 21:57:35 10° NW visible
11 Aug ? 21:27:34 10° S 21:34:20 44° W 21:41:04 10° NNW visible
